FW8607 Weather Reports


time (UTC)temp
F
wind
direction
speed
knots
gust
knots
rain 1hr
in
rain 24hr
in
rain mn
in
humidity
%
barometer
mb
20240420223018 71 225 5.2 12.2 0.00 0.00 0.00 63 1014.3
20240420220018 70 248 7.0 14.8 0.00 0.00 0.00 66 1014.7
20240420213020 71 248 6.1 13.9 0.00 0.00 0.00 63 1014.9
20240420210019 71 248 5.2 11.3 0.00 0.00 0.00 63 1015.1
20240420203019 69 293 5.2 13.0 0.00 0.00 0.00 65 1015.4
20240420200020 68 293 5.2 9.6 0.00 0.00 0.00 64 1015.7
20240420193040 67 338 5.2 11.3 0.00 0.00 0.00 66 1015.8
20240420190039 65 293 5.2 10.4 0.00 0.00 0.00 68 1016.2
20240420183039 64 293 4.3 8.7 0.00 0.00 0.00 69 1016.0
20240420180019 63 315 3.5 7.8 0.00 0.00 0.00 71 1016.0
20240420173039 61 338 3.5 8.7 0.00 0.00 0.00 72 1016.1
20240420170019 60 338 3.5 9.6 0.00 0.00 0.00 75 1015.9
20240420163019 59 338 2.6 7.8 0.00 0.00 0.00 77 1015.8
20240420160020 58 113 2.6 7.0 0.00 0.00 0.00 77 1015.6
20240420153039 56 68 1.7 6.1 0.00 0.00 0.00 81 1015.3
20240420150019 55 0 0.9 4.3 0.00 0.00 0.00 82 1015.2
20240420143018 55 248 1.7 3.5 0.00 0.00 0.00 83 1015.3
20240420140019 54 248 0.9 3.5 0.00 0.00 0.00 84 1015.0
20240420133018 54 248 0.9 3.5 0.00 0.00 0.00 84 1014.9
20240420130100 54 158 0.9 3.5 0.00 0.00 0.00 84 1014.8
20240420123020 55 158 0.9 4.3 0.00 0.00 0.00 85 1014.5
20240420120019 55 90 0.9 3.5 0.00 0.00 0.00 86 1014.4
20240420113039 55 90 1.7 3.5 0.00 0.00 0.00 86 1014.2
20240420110018 55 248 0.9 3.5 0.00 0.00 0.00 86 1014.3
20240420103018 55 0.0 2.6 0.00 0.00 0.00 85 1014.5
20240420100018 55 248 1.7 3.5 0.00 0.00 0.00 86 1014.6
20240420093018 55 113 0.9 3.5 0.00 0.00 0.00 87 1014.7
20240420090018 55 113 0.9 5.2 0.00 0.00 0.00 88 1014.7
20240420083038 55 135 1.7 3.5 0.00 0.00 0.00 87 1014.9
20240420080019 55 135 0.9 4.3 0.00 0.00 0.00 87 1014.7
20240420073019 55 0.0 2.6 0.00 0.00 0.00 87 1015.0
20240420070019 55 315 0.9 4.3 0.00 0.00 0.00 87 1014.9
20240420063038 55 338 1.7 3.5 0.00 0.00 0.00 87 1014.7
20240420060058 55 248 1.7 3.5 0.00 0.00 0.00 88 1014.7
20240420053018 55 248 1.7 2.6 0.00 0.00 0.00 89 1014.8
20240420050017 54 248 1.7 2.6 0.00 0.00 0.00 89 1014.6
20240420043039 54 248 1.7 3.5 0.00 0.00 0.00 88 1014.4
20240420040017 54 248 2.6 4.3 0.00 0.00 0.00 87 1014.2
20240420033021 55 248 2.6 6.1 0.00 0.00 0.00 86 1014.0
20240420030020 56 270 3.5 6.1 0.00 0.00 0.00 85 1013.7
20240420023039 57 248 5.2 10.4 0.00 0.00 0.00 83 1013.3
20240420020041 59 225 5.2 10.4 0.00 0.00 0.00 79 1013.1
20240420013019 61 248 5.2 9.6 0.00 0.00 0.00 76 1013.0
20240420010019 62 225 7.0 12.2 0.00 0.00 0.00 74 1013.1
20240420003019 64 248 6.1 13.0 0.00 0.00 0.00 73 1013.1
20240420000019 64 225 7.0 13.0 0.00 0.00 0.00 72 1013.2
20240419233019 64 225 7.8 13.9 0.00 0.00 0.00 71 1013.0
20240419230019 66 248 7.0 13.0 0.00 0.00 0.00 69 1012.9